Carrick-on-Shannon, Ireland

10:43 AM IST on September 20, 2017 (GMT +0100)
Carrick-on-Shannon

Weather History for 03973 - December, 2012

Change the Weather History Date:

Saturday, December 8, 2012

  Actual Average Record
Temperature  
Mean Temperature 38 °F -  
Max Temperature 44 °F - - ()
Min Temperature 33 °F - - ()
Degree Days  
Heating Degree Days 26    
Moisture  
Dew Point 41 °F    
Average Humidity 96    
Maximum Humidity 100    
Minimum Humidity 84    
Precipitation  
Precipitation 0.01 in - - ()
Sea Level Pressure  
Sea Level Pressure 30.29 in    
Wind  
Wind Speed 8 mph ()    
Max Wind Speed 18 mph    
Max Gust Speed -    
Visibility 5.0 miles    
Events Fog , Rain    
T = Trace of Precipitation, MM = Missing Value Source: Averaged Metar Reports

Daily Weather History Graph

Daily Weather History Graph

Search for Another Location

Airport or City:

Trip Planner

Search our weather history database for the weather conditions in past years. The results will help you decide how hot, cold, wet, or windy it might be!

Date:

Astronomy

Dec. 08, 2012 Rise Set
Actual Time 8:40 AM GMT 4:14 PM GMT
Civil Twilight 7:57 AM GMT 4:57 PM GMT
Nautical Twilight 7:11 AM GMT 5:42 PM GMT
Astronomical Twilight 6:28 AM GMT 6:25 PM GMT
Moon 2:07 AM GMT (12/8) 1:14 PM GMT (12/8)
Length of Visible Light 8h 59m
Length of Day
7h 33m
Waning Crescent, 30% of the Moon is Illuminated
Dec 8
Waning Crescent
Dec 13
New
Dec 20
First Quarter
Dec 28
Full
Jan 5
Last Quarter

Hourly Weather History & Observations

Time (GMT) Temp. Windchill Dew Point Humidity Pressure Visibility Wind Dir Wind Speed Gust Speed Precip Events Conditions
12:00 AM 37 °F - 34 °F 84% 30.27 in - WNW 6.7 mph - -  
6:00 AM 37 °F - 36 °F 94% 30.31 in 16 mi SW 4.5 mph - -   Mostly Cloudy
7:00 AM 37.4 °F 33.8 °F 35.6 °F 93% 30.27 in 6.2 mi SSW 4.6 mph - N/A   Mostly Cloudy
7:30 AM 37.4 °F 33.8 °F 37.4 °F 100% 30.27 in 6.2 mi SSW 4.6 mph - N/A   Mostly Cloudy
8:00 AM 37.4 °F 33.8 °F 35.6 °F 93% 30.27 in 6.2 mi SSW 4.6 mph - N/A   Scattered Clouds
8:30 AM 37.4 °F 32.1 °F 37.4 °F 100% 30.27 in 6.2 mi SW 6.9 mph - N/A   Scattered Clouds
9:00 AM 39.2 °F 35.9 °F 39.2 °F 100% 30.30 in 0.9 mi SSW 4.6 mph - N/A Rain Light Rain
9:30 AM 39.2 °F 37.0 °F 39.2 °F 100% 30.30 in 0.4 mi SSW 3.5 mph - N/A Fog , Rain Light Rain
10:00 AM 42.8 °F 41.1 °F 41.0 °F 93% 30.30 in 0.2 mi SSW 3.5 mph - N/A Fog , Rain Light Rain
10:30 AM 44.6 °F 39.7 °F 42.8 °F 93% 30.30 in 0.6 mi WSW 9.2 mph - N/A Fog Fog
11:00 AM 42.8 °F 35.8 °F 42.8 °F 100% 30.30 in 4.3 mi West 13.8 mph - N/A   Mostly Cloudy
11:30 AM 44.6 °F 38.1 °F 44.6 °F 100% 30.30 in 6.2 mi WSW 13.8 mph - N/A   Mostly Cloudy
12:00 PM 44 °F - 44 °F 97% 30.34 in 12 mi WSW 13.4 mph - -   Partly Cloudy
12:00 PM 44.6 °F 38.1 °F 42.8 °F 93% 30.30 in 6.2 mi WSW 13.8 mph - N/A   Mostly Cloudy
12:30 PM 44.6 °F 37.4 °F 44.6 °F 100% 30.30 in 3.7 mi WSW 16.1 mph - N/A   Light Drizzle
1:00 PM 44.6 °F 37.8 °F 42.8 °F 93% 30.30 in 3.1 mi WSW 15.0 mph - N/A   Light Drizzle
1:30 PM 44.6 °F 38.1 °F 44.6 °F 100% 30.30 in 3.7 mi WSW 13.8 mph - N/A   Light Drizzle
2:00 PM 44.6 °F 38.1 °F 44.6 °F 100% 30.27 in 6.2 mi West 13.8 mph - N/A   Overcast
2:30 PM 44.6 °F 36.9 °F 42.8 °F 93% 30.27 in 6.2 mi West 18.4 mph - N/A   Mostly Cloudy
3:00 PM 44.6 °F 36.9 °F 44.6 °F 100% 30.27 in 6.2 mi West 18.4 mph - N/A   Mostly Cloudy
3:30 PM 44.6 °F 38.1 °F 44.6 °F 100% 30.27 in 3.7 mi West 13.8 mph - N/A   Overcast
4:00 PM 44.6 °F 38.4 °F 44.6 °F 100% 30.27 in 2.5 mi West 12.7 mph - N/A   Light Drizzle
4:30 PM 44.6 °F 38.1 °F 42.8 °F 93% 30.27 in 2.2 mi West 13.8 mph - N/A   Light Drizzle
5:00 PM 44.6 °F 38.4 °F 42.8 °F 93% 30.27 in 0.4 mi West 12.7 mph - N/A Fog Light Drizzle
6:00 PM 43 °F - 43 °F 100% 30.32 in 11 mi West 11.2 mph - - Rain Light Drizzle